TimeMST,TemperatureF,Dew PointF,Humidity,Sea Level PressureIn,VisibilityMPH,Wind Direction,Wind SpeedMPH,Gust SpeedMPH,PrecipitationIn,Events,Conditions,WindDirDegrees,DateUTC
12:15 AM,32.0,17.6,55,30.27,10.0,NW,9.2,-,N/A,,Clear,320,2013-01-20 07:15:00
12:35 AM,32.0,17.6,55,30.27,10.0,Calm,Calm,-,N/A,,Clear,0,2013-01-20 07:35:00
12:55 AM,32.0,17.6,55,30.27,10.0,Calm,Calm,-,N/A,,Clear,0,2013-01-20 07:55:00
1:15 AM,32.0,17.6,55,30.27,10.0,Calm,Calm,-,N/A,,Clear,0,2013-01-20 08:15:00
1:35 AM,28.4,19.4,69,30.27,10.0,Calm,Calm,-,N/A,,Clear,0,2013-01-20 08:35:00
1:55 AM,28.4,17.6,64,30.27,10.0,NW,3.5,-,N/A,,Clear,310,2013-01-20 08:55:00
2:15 AM,30.2,17.6,60,30.26,10.0,Calm,Calm,-,N/A,,Clear,0,2013-01-20 09:15:00
2:35 AM,28.4,17.6,64,30.26,10.0,Calm,Calm,-,N/A,,Clear,0,2013-01-20 09:35:00
2:55 AM,28.4,17.6,64,30.26,10.0,Calm,Calm,-,N/A,,Clear,0,2013-01-20 09:55:00
3:15 AM,28.4,17.6,64,30.25,10.0,NW,6.9,-,N/A,,Clear,310,2013-01-20 10:15:00
3:35 AM,30.2,17.6,60,30.25,10.0,NW,10.4,-,N/A,,Clear,310,2013-01-20 10:35:00
3:55 AM,28.4,17.6,64,30.24,10.0,NW,8.1,-,N/A,,Clear,310,2013-01-20 10:55:00
5:50 AM,28.4,17.6,64,30.25,10.0,WNW,9.2,-,N/A,,Clear,290,2013-01-20 12:50:00
6:50 AM,28.4,17.6,64,30.25,10.0,WNW,8.1,-,N/A,,Clear,300,2013-01-20 13:50:00
7:50 AM,33.8,19.4,56,30.24,10.0,NW,6.9,-,N/A,,Clear,310,2013-01-20 14:50:00
8:50 AM,46.4,21.2,37,30.25,10.0,Calm,Calm,-,N/A,,Clear,0,2013-01-20 15:50:00
9:50 AM,51.8,21.2,30,30.26,10.0,Calm,Calm,-,N/A,,Clear,0,2013-01-20 16:50:00
10:50 AM,57.2,19.4,23,30.24,10.0,Calm,Calm,-,N/A,,Clear,0,2013-01-20 17:50:00
11:50 AM,59.0,17.6,20,30.19,10.0,South,6.9,-,N/A,,Clear,180,2013-01-20 18:50:00
12:50 PM,62.6,15.8,16,30.14,10.0,South,4.6,-,N/A,,Clear,180,2013-01-20 19:50:00
2:50 PM,64.4,10.4,12,30.10,10.0,South,13.8,-,N/A,,Clear,180,2013-01-20 21:50:00
3:50 PM,62.6,10.4,13,30.08,10.0,SSW,11.5,-,N/A,,Clear,210,2013-01-20 22:50:00
4:50 PM,59.0,12.2,16,30.09,10.0,Calm,Calm,-,N/A,,Clear,0,2013-01-20 23:50:00
5:35 PM,53.6,14.0,21,30.10,10.0,Calm,Calm,-,N/A,,Clear,0,2013-01-21 00:35:00
7:15 PM,44.6,15.8,31,30.12,10.0,Calm,Calm,-,N/A,,Clear,0,2013-01-21 02:15:00
7:35 PM,41.0,15.8,36,30.12,10.0,Calm,Calm,-,N/A,,Clear,0,2013-01-21 02:35:00
7:55 PM,37.4,17.6,45,30.13,10.0,Calm,Calm,-,N/A,,Clear,0,2013-01-21 02:55:00
8:35 PM,37.4,17.6,45,30.13,10.0,Calm,Calm,-,N/A,,Clear,0,2013-01-21 03:35:00
8:55 PM,37.4,17.6,45,30.14,10.0,Calm,Calm,-,N/A,,Clear,0,2013-01-21 03:55:00
9:15 PM,35.6,17.6,48,30.14,10.0,Calm,Calm,-,N/A,,Clear,0,2013-01-21 04:15:00
9:35 PM,41.0,17.6,39,30.17,10.0,NNW,15.0,-,N/A,,Clear,330,2013-01-21 04:35:00
9:55 PM,41.0,15.8,36,30.18,10.0,North,11.5,-,N/A,,Clear,350,2013-01-21 04:55:00
10:15 PM,39.2,15.8,39,30.18,10.0,NNW,10.4,-,N/A,,Clear,340,2013-01-21 05:15:00
10:35 PM,37.4,15.8,41,30.18,10.0,NNW,9.2,-,N/A,,Clear,340,2013-01-21 05:35:00
11:15 PM,33.8,17.6,52,30.18,10.0,NNW,10.4,-,N/A,,Clear,340,2013-01-21 06:15:00
11:35 PM,35.6,17.6,48,30.19,10.0,NNW,8.1,-,N/A,,Clear,330,2013-01-21 06:35:00